Find Starlink 2569

NORAD ID: 48277 Int'l Des: 2021-036 Owner: SPXS Country: US Constellation: starlink operational
LEOCIRCULARSTARLINK_TYPE

当前视图

正在加载3D地球...

About Starlink 2569

Starlink 2569 (NORAD 48277) is a starlink constellation satellite (v1.0) launched Apr 29, 2021 by SPXS of US. It operates in LEO, CIRCULAR, STARLINK_TYPE orbit with a mass of 260.00 kg.

关于 Starlink 2569

正在加载描述...

即将过境

Passes for default location (London). Set your location on the main map for personalized predictions.

高度历史

Loading altitude history...

两行轨道根数

1 48277U 21036B 26170.52081649 .00036081 00000-0 11568-2 0 9992
2 48277 53.1243 259.2385 0001375 266.0378 94.0466 15.32031064284873
Epoch: Jun 19, 2026 • Age: 13 hours

当前状态

高度 470.6 km
速度 7.63 km/s
星下点 -1.08°S, 141.97°E
发射日期 Apr 29, 2021
运行时间 5.1 years
类型 internet

技术详情

分类 Payload
质量 260.00 kg
干质量 248.00 kg
总质量 260.00 kg
长度 0.20 m
直径 2.80 m
跨度 9.00 m
形状 Box + pan
制造商 SPXS
平台类型 Starlink
阶段状态 In Orbit
所有者/国家 SPXS/US

Most Searched